User: anonymous   Login
Location: Unspecified
(0.0000°N, 0.0000°E)
Time: 11:12:49
(UTC+00:00)
Language:

SMS 2 - Orbit

View from above orbital plane
View from above orbital plane
View from above satellite
View from above satellite

Ground track
Ground track

The orbit data is extracted from the following two-line orbital elements,

1  7648U 75011A   19081.57123117 -.00000145  00000-0  00000+0 0  9995
2  7648  11.6631 314.0568 0008137 194.6822 153.6590  0.99507567109426
Epoch (UTC): 22 March 2019 13:42:34
Eccentricity: 0.0008137
inclination: 11.6631°
perigee height: 35967 km
apogee height: 36036 km
right ascension of ascending node: 314.0568°
argument of perigee: 194.6822°
revolutions per day: 0.99507567
mean anomaly at epoch: 153.6590°
orbit number at epoch: 10942

The dashed part of the orbit path shows where the satellite is in the earth's shadow,  

DLR